Tartu current weather conditions

sailwx.info

Wind from 230 at 12 knots

Air temperature -0.0° C
Visibility: greater than 2.7 NM
Dewpoint -1.0° C
Present weather: Light freezing drizzle.

Last reported at 2017-Jan-18 19:50 UTC.
Time now 2017-Jan-18 22:18 UTC

Location: N 58°18' E 026°41'.
View on Google Maps.

See reports from other nearby stations

  
Tides and Currents Weather Stations Pressure Air Temp Water Temp Dewpoint Dewpoint Depression Visibility Wind Speed Wind Dir Waves Ship Positions
date/time (UTC)wind fromknots sea level pressurealtimeterstation pressurevisibilityair tempwater tempwave heightnotes
2017-Jan-18 20:50 230 12 1.9-0.0 Mist.
2017-Jan-18 19:50 230 12 2.7-0.0 Light freezing drizzle.
2017-Jan-18 18:50 230 12 3.2-0.0 Light freezing drizzle.
2017-Jan-18 17:50 220 11 3.8-1.0
2017-Jan-18 16:50 230 12 3.8-1.0 Light freezing drizzle.
2017-Jan-18 14:50 220 12 5.4-1.0 Light freezing drizzle.
2017-Jan-18 13:50 230 12 5.4-1.0
2017-Jan-18 12:50 220 11 5.4-1.0
2017-Jan-18 11:50 220 11 5.4-1.0
2017-Jan-18 10:50 220 12 5.4-1.0
2017-Jan-18 09:50 220 12 4.9-1.0 Light snow.
2017-Jan-18 08:50 230 12 5.4-2.0
2017-Jan-18 07:50 230 12 5.4-2.0
2017-Jan-18 06:50 220 12 5.4-3.0
2017-Jan-18 05:50 230 13 5.4-3.0
2017-Jan-18 04:50 230 11 5.4-3.0
2017-Jan-18 03:50 220 11 5.4-3.0
2017-Jan-18 02:50 210 9 5.4-3.0
2017-Jan-18 01:50 210 9 5.4-4.0
2017-Jan-18 00:50 210 11 5.4-4.0
2017-Jan-17 23:50 220 9 5.4-4.0
2017-Jan-17 22:50 210 7 5.4-6.0
2017-Jan-17 21:50 190 6 5.4-7.0
2017-Jan-17 20:50 210 5 5.4-6.0
2017-Jan-17 19:50 200 6 5.4-7.0
2017-Jan-17 18:50 210 5 5.4-5.0
2017-Jan-17 17:50 230 6 5.4-4.0
2017-Jan-17 16:50 240 6 5.4-5.0
2017-Jan-17 15:50 230 4 1.3-4.0 Snow.
2017-Jan-17 14:50 230 4 4.3-5.0 Light snow showers.
2017-Jan-17 13:50 220 6 4.9-5.0 Light snow showers.
2017-Jan-17 12:50 220 4 5.4-5.0
2017-Jan-17 11:50 220 4 5.4-5.0 Light snow showers.
2017-Jan-17 10:50 230 5 5.4-5.0
2017-Jan-17 09:50 210 5 5.4-5.0
2017-Jan-17 08:50 230 4 5.4-5.0
2017-Jan-17 07:50 210 4 5.4-6.0
2017-Jan-17 06:50 210 4 5.4-7.0
2017-Jan-17 05:50 190 4 4.9-9.0 Mist.
2017-Jan-17 04:50 200 4 5.4-6.0
2017-Jan-17 03:50 200 5 5.4-7.0
2017-Jan-17 02:50 5.4-6.0
2017-Jan-17 01:50 5.4-6.0
2017-Jan-17 00:50 5.4-6.0
2017-Jan-16 23:50 5.4-6.0
2017-Jan-16 22:50 5.4-6.0